Retour au catalogue

STARLINK-3516

ActifCommunicationsVLEO
NORAD 51739·PAYLOAD·🇺🇸 United States

Lancé Feb 21, 2022 depuis Cape Canaveral Space Force Station

Loading…

Prochains Passages (prochaines 24 heures)

TLE

FraisSource: CelesTrak SupGP

Époque: Sep 15, 2026, 02:20 UTC

1 51739C 22016AB  26258.09770833  .00002095  00000+0  59963-4 0  2585
2 51739  53.1581 174.8562 0001294  83.1177 302.7768 15.35383016    15

Suivez STARLINK-3516 en temps réel avec AllMySat

Download on the App Store